Home   Weather   Stonewall   Past weeks

Flag for Canada Past Weather in Stonewall, Manitoba, Canada — Yesterday and Last 2 Weeks

Now
23 °F

Light snow. Overcast.


Feels Like: 11 °F
Forecast: N/A
Wind: 13 mph from Northwest

Location: Winnipeg Int. Airportman.

Current Time: Jan 24, 2017 at 5:42:32 pm

Latest Report: Jan 24, 2017 at 5:00 pm


Visibility: 15 mi

Pressure: 29.93 "Hg

Humidity: 93%

Dew Point: 21 °F

Location of StonewallLocation

Past Weather in Stonewall — Graph

°F

Stonewall Temperature Yesterday

Maximum temperature yesterday: 32 °F (at 12:00 am)
Minimum temperature yesterday: 27 °F (at 9:00 pm)
Average temperature yesterday: 29 °F

High & Low Weather Summary for the Past Weeks

 TemperatureHumidityPressure
High36 °F (Jan 20, 10:00 am)100% (Jan 19, 9:25 pm)30.73 "Hg (Jan 19, 9:25 pm)
Low-26 °F (Jan 13, 4:00 am)58% (Jan 11, 2:00 pm)29.46 "Hg (Jan 21, 6:45 am)
Average14 °F84%29.86 "Hg
* Reported Jan 9 4:19 pm — Jan 24 4:29 pm, Stonewall, Weather by CustomWeather, © 2017

Note: Actual official high and low records may vary slightly from our data, if they occured in-between our weather recording intervals... More about our weather records

Advertising

Stonewall Weather History for the Previous 24 Hours

Scroll right to see more
 ConditionsComfort  
Time TempWeatherWind HumidityBarometerVisibility
4:29 pm
Tue, Jan 24
23 °FLight snow. Overcast.14 mph93%29.92 "Hg6 mi
4:00 pm25 °FOvercast.15 mph86%29.90 "Hg15 mi
3:36 pm25 °FLow clouds.14 mph86%29.90 "Hg15 mi
3:00 pm25 °FLight snow. Overcast.15 mph86%29.89 "Hg15 mi
2:00 pm25 °FLight snow. Mostly cloudy.15 mph93%29.88 "Hg15 mi
1:00 pm25 °FLight snow. Mostly cloudy.12 mph93%29.89 "Hg15 mi
12:00 pm27 °FLight snow. Mostly cloudy.12 mph86%29.88 "Hg15 mi
11:00 am27 °FLight snow. Mostly cloudy.14 mph93%29.88 "Hg10 mi
10:00 am27 °FLow clouds.8 mph93%29.86 "Hg10 mi
9:33 am27 °FLight snow. Low clouds.7 mph93%29.86 "Hg15 mi
9:07 am25 °FLight snow. Low clouds.8 mph93%29.85 "Hg2 mi
8:50 am25 °FLight snow. Overcast.7 mph93%29.85 "Hg2 mi
8:00 am25 °FLight snow. Low clouds.10 mph93%29.85 "Hg3 mi
7:44 am25 °FLight snow. Overcast.9 mph93%29.85 "Hg4 mi
7:00 am25 °FLight snow. Overcast.13 mph93%29.85 "Hg2 mi
6:00 am25 °FLight snow. Overcast.10 mph93%29.83 "Hg2 mi
5:00 am27 °FLight snow. Overcast.9 mph86%29.83 "Hg5 mi
4:00 am27 °FOvercast.10 mph86%29.82 "Hg15 mi
3:00 am27 °FLight snow. Overcast.10 mph86%29.82 "Hg15 mi
2:00 am27 °FLight snow. Overcast.9 mph86%29.81 "Hg15 mi
1:00 am27 °FLow clouds.10 mph86%29.80 "Hg15 mi
12:00 am27 °FLight snow. Low clouds.9 mph86%29.80 "Hg15 mi
11:00 pm
Mon, Jan 23
27 °FLight snow. Low clouds.9 mph86%29.79 "Hg15 mi
10:00 pm27 °FLight snow. Overcast.8 mph86%29.80 "Hg15 mi
9:00 pm27 °FLight snow. Overcast.8 mph86%29.79 "Hg15 mi
8:00 pm28 °FLight snow. Overcast.10 mph80%29.79 "Hg15 mi
7:23 pm28 °FLight snow. Mostly cloudy.12 mph86%29.79 "Hg12 mi
6:00 pm28 °FLight snow. Overcast.9 mph80%29.78 "Hg15 mi
5:00 pm28 °FLight snow. Overcast.9 mph80%29.78 "Hg15 mi
Weather by CustomWeather, © 2017

See weather overviewHow to use our weather pages